Date String (YYYY-MM-DD hh:mm:ss) UTC,Instrument flags,Ambient pressure (hPa),Sample flow (lpm),Bypass flow (lpm),Sample temperature (°C),Ambient temperature (°C),ASC tube jacket temperature (°C),LED temperature (°C),Box temperature (°C),Sample RH (%),Span deviation,Mass concentration (μg/m³),Mass concentration (μg/m³),Mass concentration (μg/m³)
DateTimeUTC,F1_M11,P_M11,Q1_M11,Q2_M11,T1_M11,T2_M11,T3_M11,T4_M11,T5_M11,U1_M11,ZSPAN_M11,X2_M11,X0_M11,X1_M11
2022-09-05 13:00:00,,0827.2,5.01,0.00,30.4,26.7,00.0,39.1,32.0,16.2,0000.0,0008.36,0016.20,0007.23
2022-09-05 13:01:00,,0827.2,4.99,0.00,30.3,26.6,00.0,39.1,32.0,16.3,0000.0,0008.38,0017.20,0007.26
2022-09-05 13:02:00,,0827.2,5.01,0.00,30.2,26.9,00.0,39.0,31.8,16.6,0000.0,0008.36,0017.41,0007.27
2022-09-05 13:03:00,,0827.2,5.00,0.00,30.1,27.3,00.0,39.0,31.8,16.6,0000.0,0008.31,0017.77,0007.27
2022-09-05 13:04:00,,0827.4,5.00,0.00,30.1,27.6,00.0,38.9,31.8,16.5,0000.0,0008.29,0017.58,0007.27
2022-09-05 13:05:00,,0827.2,5.01,0.00,30.1,27.9,00.0,38.9,31.7,16.5,0000.0,0008.27,0016.58,0007.28
2022-09-05 13:06:00,,0827.2,5.00,0.00,30.1,28.1,00.0,38.9,31.7,16.6,0000.0,0008.27,0016.60,0007.27
2022-09-05 13:07:00,,0827.2,5.00,0.00,30.1,28.3,00.0,38.9,31.8,16.6,0000.0,0008.26,0016.86,0007.24
2022-09-05 13:08:00,,0827.3,5.00,0.00,30.0,28.4,00.0,38.9,31.8,16.5,0000.0,0008.29,0017.53,0007.23
2022-09-05 13:09:00,,0827.3,5.01,0.00,30.1,28.6,00.0,38.9,31.9,16.5,0000.0,0008.23,0017.61,0007.22
2022-09-05 13:10:00,,0827.4,5.00,0.00,30.1,28.7,00.0,38.9,31.9,16.5,0000.0,0008.21,0017.23,0007.21
2022-09-05 13:11:00,,0827.4,4.99,0.00,30.1,28.8,00.0,38.9,31.9,16.5,0000.0,0008.22,0016.74,0007.19
2022-09-05 13:12:00,,0827.4,5.01,0.00,30.1,28.8,00.0,38.9,31.9,16.6,0000.0,0008.17,0016.19,0007.16
2022-09-05 13:13:00,,0827.4,5.01,0.00,30.1,28.9,00.0,38.9,32.0,16.5,0000.0,0008.17,0015.73,0007.15
2022-09-05 13:14:00,,0827.4,5.00,0.00,30.1,28.9,00.0,38.9,32.0,16.3,0000.0,0008.18,0015.77,0007.14
2022-09-05 13:15:00,,0827.4,4.99,0.00,30.2,29.0,00.0,38.9,32.0,16.3,0000.5,0008.23,0016.30,0007.13
2022-09-05 13:16:00,,0827.4,5.01,0.00,30.2,29.0,00.0,38.9,32.0,16.3,0000.4,0008.21,0016.29,0007.10
2022-09-05 13:17:00,,0827.4,5.00,0.00,30.2,29.1,00.0,39.0,32.1,16.3,0000.0,0008.18,0016.24,0007.07
2022-09-05 13:18:00,,0827.4,4.98,0.00,30.2,29.1,00.0,39.0,32.1,16.3,0000.2,0008.16,0016.74,0007.05
2022-09-05 13:19:00,,0827.4,5.00,0.00,30.3,29.2,00.0,39.0,32.1,16.2,0000.0,0008.12,0017.85,0007.04
2022-09-05 13:20:00,,0827.5,5.01,0.00,30.3,29.2,00.0,39.0,32.1,16.2,0000.0,0008.11,0017.63,0007.01
2022-09-05 13:21:00,,0827.4,5.01,0.00,30.3,29.2,00.0,39.0,32.2,16.2,0000.3,0008.11,0017.75,0007.00
2022-09-05 13:22:00,,0827.5,4.98,0.00,30.3,29.3,00.0,39.1,32.2,16.2,0000.0,0008.07,0017.93,0006.96
2022-09-05 13:23:00,,0827.5,5.01,0.00,30.4,29.3,00.0,39.1,32.2,16.3,0000.0,0008.07,0017.38,0006.93
2022-09-05 13:24:00,,0827.5,5.01,0.00,30.4,29.3,00.0,39.1,32.2,16.3,0000.0,0008.07,0017.53,0006.87
2022-09-05 13:25:00,,0827.6,5.01,0.00,30.4,29.0,00.0,39.1,32.2,16.4,0000.0,0008.06,0017.17,0006.82
2022-09-05 13:26:00,,0827.5,5.01,0.00,30.4,27.6,00.0,39.1,32.1,16.6,0000.0,0008.02,0017.29,0006.77
2022-09-05 13:27:00,,0827.5,4.99,0.00,30.3,26.9,00.0,39.0,32.0,16.8,0000.0,0008.00,0018.99,0006.75
2022-09-05 13:28:00,,0827.5,5.01,0.00,30.3,27.0,00.0,39.0,31.9,16.9,0000.0,0008.04,0018.93,0006.76
2022-09-05 13:29:00,,0827.5,5.00,0.00,30.2,27.3,00.0,39.0,31.8,16.9,0000.0,0008.02,0018.52,0006.74
2022-09-05 13:30:00,,0827.6,5.00,0.00,30.1,27.6,00.0,38.9,31.8,17.0,0000.0,0008.00,0017.42,0006.70
2022-09-05 13:31:00,,0827.6,5.00,0.00,30.1,27.9,00.0,38.9,31.8,17.3,0000.0,0008.01,0018.28,0006.69
2022-09-05 13:32:00,,0827.7,4.99,0.00,30.1,28.2,00.0,38.9,31.8,17.2,0000.0,0008.02,0018.52,0006.67
2022-09-05 13:33:00,,0827.7,5.01,0.00,30.1,28.4,00.0,38.9,31.9,17.1,0000.0,0008.00,0018.17,0006.65
2022-09-05 13:34:00,,0827.7,5.00,0.00,30.1,28.5,00.0,38.9,31.9,17.3,0000.0,0007.99,0018.69,0006.65
2022-09-05 13:35:00,,0827.7,5.00,0.00,30.1,28.6,00.0,38.9,31.9,17.2,0000.0,0007.95,0019.48,0006.68
2022-09-05 13:36:00,,0827.7,4.98,0.00,30.1,28.7,00.0,38.9,31.9,16.7,0000.0,0007.91,0019.61,0006.68
2022-09-05 13:37:00,,0827.7,5.01,0.00,30.1,28.8,00.0,38.9,32.0,16.7,0000.0,0007.92,0019.74,0006.68
2022-09-05 13:38:00,,0827.7,5.01,0.00,30.1,28.9,00.0,38.9,32.0,16.7,0000.0,0007.89,0018.24,0006.66
2022-09-05 13:39:00,,0827.7,5.01,0.00,30.2,29.0,00.0,38.9,32.0,16.8,0000.0,0007.88,0017.96,0006.66
2022-09-05 13:40:00,,0827.7,4.98,0.00,30.2,29.0,00.0,38.9,32.0,16.9,0000.0,0007.88,0018.84,0006.66
2022-09-05 13:41:00,,0827.7,5.00,0.00,30.2,29.1,00.0,39.0,32.1,16.5,0000.0,0007.90,0018.78,0006.66
2022-09-05 13:42:00,,0827.7,5.00,0.00,30.2,29.1,00.0,39.0,32.1,16.6,0000.0,0007.88,0018.62,0006.66
2022-09-05 13:43:00,,0827.7,4.98,0.00,30.3,29.2,00.0,39.0,32.1,16.3,0000.0,0007.88,0017.87,0006.67
2022-09-05 13:44:00,,0827.8,5.00,0.00,30.3,29.2,00.0,39.0,32.2,16.2,0000.0,0007.89,0017.88,0006.68
2022-09-05 13:45:00,,0827.8,4.99,0.00,30.3,28.6,00.0,39.0,32.2,16.5,0000.0,0007.90,0018.63,0006.69
2022-09-05 13:46:00,,0827.8,5.00,0.00,30.3,27.2,00.0,39.0,31.9,16.4,0000.0,0007.92,0017.83,0006.70
2022-09-05 13:47:00,,0827.9,5.01,0.00,30.2,26.9,00.0,39.0,31.9,16.2,0000.0,0007.92,0017.66,0006.71
2022-09-05 13:48:00,,0827.9,5.00,0.00,30.2,27.1,00.0,38.9,31.8,16.1,0000.0,0007.90,0017.23,0006.73
2022-09-05 13:49:00,,0827.9,5.00,0.00,30.1,27.5,00.0,38.9,31.7,16.5,0000.0,0007.94,0017.73,0006.75
2022-09-05 13:50:00,,0827.9,4.99,0.00,30.1,27.8,00.0,38.9,31.8,16.5,0000.0,0007.98,0018.19,0006.75
2022-09-05 13:51:00,,0827.9,5.01,0.00,30.0,28.1,00.0,38.9,31.7,16.4,0000.0,0007.90,0017.18,0006.74
2022-09-05 13:52:00,,0827.9,4.99,0.00,30.0,28.2,00.0,38.9,31.8,16.7,0000.0,0007.90,0016.90,0006.74
2022-09-05 13:53:00,,0827.9,4.99,0.00,30.0,28.4,00.0,38.8,31.8,16.4,0000.0,0007.92,0016.41,0006.74
2022-09-05 13:54:00,,0827.9,5.00,0.00,30.0,28.6,00.0,38.8,31.9,16.5,0000.0,0007.90,0016.76,0006.71
2022-09-05 13:55:00,,0827.9,5.00,0.00,30.1,28.7,00.0,38.8,31.9,16.4,0000.0,0007.88,0017.09,0006.70
2022-09-05 13:56:00,,0827.9,5.00,0.00,30.1,28.8,00.0,38.8,31.9,16.6,0000.0,0007.91,0016.41,0006.68
2022-09-05 13:57:00,,0827.9,5.00,0.00,30.1,28.9,00.0,38.9,31.9,16.6,0000.0,0007.87,0015.84,0006.66
2022-09-05 13:58:00,,0827.9,4.99,0.00,30.1,28.9,00.0,38.9,32.0,16.3,0000.0,0007.85,0015.77,0006.64
2022-09-05 13:59:00,,0827.9,5.00,0.00,30.1,29.0,00.0,38.9,32.0,16.5,0000.0,0007.90,0016.61,0006.63
